Regional Weather Roundup
Issued by NWS

Home | Current Version | Previous Version | Text Only | Print | Product List | Glossary On
Versions: 1 2 3 4 5 6 7 8 9 10 11 12 13 14 15 16 17 18 19 20 21 22 23 24 25 26 27 28 29 30 31 32 33 34 35 36 37 38 39 40 41 42 43 44 45 46 47 48 49 50
000
ASUS43 KLOT 031412
RWRIL

ILLINOIS REGIONAL WEATHER ROUNDUP
NATIONAL WEATHER SERVICE CHICAGO/ROMEOVILLE IL
900 AM CDT THU SEP 03 2015

NOTE: "FAIR" INDICATES FEW OR NO CLOUDS BELOW 12,000 FEET WITH NO
SIGNIFICANT WEATHER AND/OR OBSTRUCTIONS TO VISIBILITY.

* THESE STATIONS ARE NOT UNDER NWS QUALITY CONTROL. THEY ALSO MAY NOT
  REPORT WEATHER SUCH AS PRECIPITATION OR FOG.

ILZ001-002-007-009-015-016-024-031500-
NORTHWEST ILLINOIS

CITY           SKY/WX    TMP DP  RH WIND       PRES   REMARKS
MOLINE         MOSUNNY   79  69  71 S7        29.95F HX  81
STERLING*      SUNNY     81  72  74 SW5       29.95S HX  84
SAVANNA*       SUNNY     77  69  74 SW5       29.95S
$$

ILZ003-004-008-010-011-017-018-031500-
NORTH CENTRAL ILLINOIS

CITY           SKY/WX    TMP DP  RH WIND       PRES   REMARKS
ROCKFORD       MOSUNNY   78  70  76 SW7       29.96F HX  80
FREEPORT*      SUNNY     76  70  81 SW6       29.97S
ROCHELLE*      SUNNY     76  71  84 SW7       29.97F
DE KALB*       SUNNY     78  70  77 SW7       29.98S HX  80
PERU*          SUNNY     78  68  71 SW8       29.98S HX  80
$$

ILZ005-006-012>014-019>023-031500-
NORTHEAST ILLINOIS

CITY           SKY/WX    TMP DP  RH WIND       PRES   REMARKS
CHICAGO-OHARE  MOSUNNY   78  69  73 SW10      29.95F HX  80
CHICAGO-MIDWAY MOSUNNY   81  67  62 SW12      29.95F HX  83
AURORA         SUNNY     77  70  79 SW7       29.97F
LANSING*       SUNNY     79  68  69 SW7       29.97F HX  81
JOLIET*        SUNNY     80  70  73 SW5       29.97S HX  82
WAUKEGAN       SUNNY     79  69  71 SW8       29.93F HX  81
DUPAGE AIRPORT SUNNY     77  68  73 SW8       29.96F
KANKAKEE*      SUNNY     78  71  78 SW8       29.99S HX  81
WHEELING       SUNNY     81  68  64 SW9       29.95F HX  84
MORRIS*        SUNNY     77  70  79 W7        29.96F
ROMEOVILLE*    MOSUNNY   78  68  71 SW8       29.98S
NORTHERLY ISL    N/A     79  65  62 W9          N/A  HX  81
$$

LMZ740>746-031500-
SOUTHERN LAKE MICHIGAN

STATION/POSITION SKY/WX   TEMP    WIND        PRES    VSBY  WAVE
                          AIR SEA DIR/SP/G                  HT/PER
                          (F)     (DEG/KT/KT) (MB)    (MI)  (FT/S)
SOUTHERN BUOY              73 71  230/ 12/ 14 1012.8R
WILMETTE HARBOR            69 59   40/  8/ 10   N/A           1
HARRISON CRIB              78     240/ 11/ 13   N/A
BURNHAM HARBOR             80     240/  8/  9   N/A
CALUMET HARBOR             76     210/  7/  9   N/A
BURNS HARBOR               76     200/  9/ 12 1015.2S
MICHIGAN CITY              75     180/  9/ 11   N/A
MICHIGAN CITY 6N           75 72  230/  8/ 10   N/A           1/ 2
ST. JOSEPH                 74 72  260/ 12/ 12   N/A           1/ 3
$$

ILZ025>027-034>036-040-047-049-050-058-095>099-031500-
WEST-CENTRAL ILLINOIS

CITY           SKY/WX    TMP DP  RH WIND       PRES   REMARKS
QUINCY         SUNNY     78  69  73 S9        30.00S HX  80
GALESBURG*     SUNNY     76  70  80 SW10      29.99S
MACOMB*        SUNNY     79  69  70 SW5       30.02S HX  81
JACKSONVILLE*  PTSUNNY   78  72  84 S5        30.01S
PITTSFIELD*    MOSUNNY   78  71  77 SW5       30.02S HX  81
$$

ILZ028>032-037-038-041>044-048-051>054-059>061-031500-
CENTRAL ILLINOIS

CITY           SKY/WX    TMP DP  RH WIND       PRES   REMARKS
PONTIAC        MOSUNNY   80  72  76 SW8       29.99S HX  83
BLOOMINGTON    SUNNY     78  71  79 SW12      30.02F HX  80
DECATUR        SUNNY     80  70  71 SW7       30.02F HX  83
PEORIA         SUNNY     79  69  71 SW9       29.99F HX  81
LACON*         SUNNY     77  69  78 SW7       29.97S
LINCOLN*       MOSUNNY   79  70  74 SW3       30.00F HX  82
SPRINGFIELD    MOSUNNY   81  71  71 SW5       30.01S HX  85
TAYLORVILLE    SUNNY     77  70  78 SW3       30.02S
$$

ILZ033-039-045-046-055>057-062-063-031500-
EAST-CENTRAL ILLINOIS

CITY           SKY/WX    TMP DP  RH WIND       PRES   REMARKS
CHAMPAIGN      SUNNY     79  70  74 SW7       30.02F HX  82
RANTOUL*       SUNNY     79  73  79 SW8       30.01S HX  83
MATTOON        SUNNY     79  68  69 SW6       30.03S HX  81
PARIS*         SUNNY     79  71  75 SW8       30.04F HX  82
$$

ILZ079-100>102-031500-
SOUTHWEST ILLINOIS

CITY           SKY/WX    TMP DP  RH WIND       PRES   REMARKS
ALTON          MOSUNNY   77  72  83 S6        30.03S
BELLEVILLE     SUNNY     78  74  89 CALM      30.01F HX  80
CAHOKIA*       MOSUNNY   80  70  71 S3        30.02S HX  83
SPARTA*        MOSUNNY   79  71  76 SW5       30.04F HX  82
$$

ILZ064>066-069>071-074>076-080>082-084>086-088>090-092>094-031500-
SOUTH-CENTRAL ILLINOIS

CITY           SKY/WX    TMP DP  RH WIND       PRES   REMARKS
CARBONDALE     SUNNY     77  71  82 S5        30.04S
CAIRO*         SUNNY     77  74  92 CALM      30.04S
EFFINGHAM*     SUNNY     80  68  67 S5        30.04F HX  82
MARION         SUNNY     79  72  78 SW5       30.05S HX  82
MT. VERNON     SUNNY     77  68  73 S5        30.05S
CENTRALIA*     SUNNY     80  73  78 CALM      30.03S HX  84
SALEM*         SUNNY     81  71  70 SW3       30.03F HX  85
METROPOLIS*    SUNNY     78  73  84 CALM      30.05S HX  81
$$

ILZ067-068-072-073-078-083-087-091-031500-
SOUTHEAST ILLINOIS

CITY           SKY/WX    TMP DP  RH WIND       PRES   REMARKS
LAWRENCEVILLE  SUNNY     79  70  74 SW3       30.04F HX  82
FLORA*         SUNNY     79  70  74 CALM      30.04S HX  81
FAIRFIELD*     SUNNY     78  71  80 CALM      30.03F
HARRISBURG*    SUNNY     79  70  74 CALM      30.04F HX  81
ROBINSON*      SUNNY     78  71  79 CALM      30.04F HX  80
CARMI*         SUNNY     78  73  84 CALM      30.04S HX  80
$$

ABBREVIATIONS USED IN REMARKS
   TC - TEMPERATURE IN CELSIUS
  WCI - WIND CHILL INDEX
   HX - HEAT INDEX
  VSB - VISIBILITY
$$




USA.gov is the U.S. government's official web portal to all federal, state and local government web resources and services.